Regional Weather Roundup
Issued by NWS

Home | Current Version | Previous Version | Graphics & Text | Print | Product List | Glossary Off
Versions: 1 2 3 4 5 6 7 8 9 10 11 12 13 14 15 16 17 18 19 20 21 22 23 24 25 26 27 28 29 30 31 32 33 34 35 36 37 38 39 40 41 42 43 44 45 46 47 48 49 50

000
ASUS43 KMKX 281121
RWRWI

WISCONSIN REGIONAL WEATHER ROUNDUP
NATIONAL WEATHER SERVICE MILWAUKEE/SULLIVAN WI
600 AM CDT FRI APR 28 2017

NOTE: "FAIR" INDICATES FEW OR NO CLOUDS BELOW 12,000 FEET WITH NO
SIGNIFICANT WEATHER AND/OR OBSTRUCTIONS TO VISIBILITY.

WIZ001-002-006>008-014>016-023>028-281200-
NORTHWEST WISCONSIN

CITY           SKY/WX    TMP DP  RH WIND       PRES   REMARKS
SUPERIOR ARPT  CLOUDY    31  24  76 W9        29.80R WCI  23
ASHLAND        CLOUDY    30  24  78 SW10      29.78R WCI  21
HAYWARD        CLOUDY    30  24  78 VRB3      29.79R
SIREN          CLOUDY    32  25  76 CALM      29.82R
CUMBERLAND     CLOUDY    32  23  69 W9        29.81S WCI  24
RICE LAKE      CLOUDY    32  26  79 SW6       29.83S WCI  26
CHETEK         CLOUDY    31  25  78 CALM      29.82
LADYSMITH      CLOUDY    32  26  79 W9        29.81R WCI  24
EAU CLAIRE     CLOUDY    34  27  75 W8        29.84R WCI  27
MENOMONIE      CLOUDY    35  28  78 SW7       29.84R WCI  29
NEW RICHMOND   CLOUDY    34  26  72 NW16G22   29.84R WCI  23
OSCEOLA        CLOUDY    34  23  65 W14G22    29.87R WCI  24
$$

WIZ003>005-009-010-017-018-281200-
NORTH CENTRAL WISCONSIN

CITY           SKY/WX    TMP DP  RH WIND       PRES   REMARKS
MANITOWISH WTR CLOUDY    28  26  92 W9        29.73R WCI  19
ARBOR VITAE    CLOUDY    32  28  87 SW10      29.73R WCI  23
WOODRUFF       CLOUDY    32  28  87 SW10      29.73R WCI  23
RHINELANDER    CLOUDY    30  24  78 W15G23    29.76R WCI  19
EAGLE RIVER    CLOUDY    28  23  80 W14       29.73R WCI  17
LAND O LAKES   CLOUDY    28  26  90 W7        29.74R FOG     WCI  21
PHILLIPS       CLOUDY    28  25  86 SW8       29.76R WCI  20
TOMAHAWK       CLOUDY    29  22  75 W3        29.79R
MEDFORD        CLOUDY    30  25  79 W7        29.79R WCI  23
MERRILL        CLOUDY    30  26  84 W5        29.80S WCI  26
$$

WIZ029-030-035-036-043>047-281200-
CENTRAL WISCONSIN

CITY           SKY/WX    TMP DP  RH WIND       PRES   REMARKS
WAUSAU         CLOUDY    32  25  75 W12       29.80R WCI  23
MOSINEE        CLOUDY    32  27  80 W14G20    29.82R WCI  22
MARSHFIELD     CLOUDY    32  24  72 W10       29.81R WCI  24
STEVENS POINT  CLOUDY    32  26  79 W9G16     29.83S WCI  24
WAUPACA        CLOUDY    36  28  71 W14       29.85S WCI  27
WAUTOMA        CLOUDY    35  29  78 W6          N/A  WCI  30
WISC RAPIDS    CLOUDY    34  27  75 W8        29.85R WCI  27
CAMP DOUGLAS   CLEAR     31  27  86 W6        29.85S WCI  25
$$

WIZ011>013-019>022-031-037>040-048>050-281200-
NORTHEAST WISCONSIN

CITY           SKY/WX    TMP DP  RH WIND       PRES   REMARKS
ANTIGO         CLOUDY    29  26  90 W12       29.79R WCI  19
SHAWANO        CLOUDY    35  27  70 W7        29.84R WCI  30
OCONTO         CLOUDY    34  25  69 W13G18    29.84R WCI  25
STURGEON BAY   CLOUDY    35  26  69 W13       29.84R WCI  26
GREEN BAY      CLOUDY    36  32  85 W13       29.85R WCI  27
MANITOWOC      CLOUDY    38  31  76 W9        29.85S WCI  31
APPLETON       CLOUDY    34  28  80 W13G20    29.83R WCI  25
CLINTONVILLE   CLOUDY    34  27  75 W12G17    29.84R WCI  25
OSHKOSH        CLOUDY    36  28  73 W8        29.84S WCI  30
$$

WIZ032>034-041-042-053>061-281200-
SOUTHWEST WISCONSIN

CITY           SKY/WX    TMP DP  RH WIND       PRES   REMARKS
LA CROSSE      CLEAR     35  26  69 W8        29.87S WCI  29
SPARTA         CLEAR     31  28  87 CALM      29.87S
VIROQUA        CLEAR     31  28  90 CALM      29.85S
BOSCOBEL       CLEAR     32  27  81 CALM      29.89R
PRAIRIE DU CHI CLOUDY    31  27  83 CALM      29.89R
PLATTEVILLE    CLEAR     31  30  96 SW3       29.89R
$$

WIZ056-057-062-063-064-067-068-281200-
SOUTH CENTRAL WISCONSIN

CITY           SKY/WX    TMP DP  RH WIND       PRES   REMARKS
REEDSBURG      CLOUDY    33  28  83 W7        29.87R WCI  26
BARABOO/DELLS  CLOUDY    33  27  78 W9        29.87R WCI  26
LONE ROCK      PTCLDY    34  27  75 NW7       29.88R WCI  28
MINERAL POINT  CLEAR     32  32 100 W5        29.87R WCI  27
MADISON        PTCLDY    32  30  92 CALM      29.86S
MIDDLETON      CLEAR     32  30  94 SW3       29.87R
WATERTOWN      CLOUDY    32  32 100 SW5       29.87R WCI  27
MONROE         CLEAR     34  30  86 W9        29.87R WCI  26
JANESVILLE     PTCLDY    36  34  93 CALM      29.88R
$$

WIZ051-052-058>065-066-070>072-281200-
SOUTHEAST WISCONSIN

CITY           SKY/WX    TMP DP  RH WIND       PRES   REMARKS
MILWAUKEE      MOCLDY    39  31  72 W7        29.88R WCI  34
WAUKESHA       CLEAR     32  28  86 SW6       29.87R WCI  26
MILWAUKEE/TIMM PTCLDY    34  28  80 SW3       29.88R
RACINE         CLEAR     37  30  75 W3        29.90R
KENOSHA        CLOUDY    38  30  73 SW5       29.89R WCI  34
FOND DU LAC    CLOUDY    37  27  67 W10       29.85S WCI  30
SHEBOYGAN      CLOUDY    37  32  82 W10       29.85R WCI  30
WEST BEND      CLOUDY    36  32  87 NW8       29.85S WCI  29
JUNEAU         CLOUDY    35  29  80 CALM      29.86S
$$

LSZ147-162-281200-
LAKE SUPERIOR

STATION/POSITION TIME  TEMP    WIND        PRES    WAVE
                       AIR SEA DIR/SP/G            HT/PER
                 (UTC) (F)     (DEG/KT/KT) (MB)    (FT/S)
DEVILS ISLAND    1100   32     260/ 22/ 26 1007.9R
PORT WING        1040   33     260/ 15/ 21 1008.5R
SAXON HARBOR     1040   30     220/  7/ 12 1007.8R
$$

LMZ867-665-643>646-281200-
LAKE MICHIGAN

STATION/POSITION TIME  TEMP    WIND        PRES    WAVE
                       AIR SEA DIR/SP/G            HT/PER
                 (UTC) (F)     (DEG/KT/KT) (MB)    (FT/S)
CHAMBERS ISLAND  1040   34     230/  9/ 18 1009.5R
N MID LAKE BUOY  1050   34 37  250/ 16/ 19 1010.5R   3/ 4
NORTHPORT PIER   1040   34     290/  6/ 12 1009.8R
KEWAUNEE LAKESHO 1054   37     250/  8/ 13 1010.3R
SHEBOYGAN LAKESH 1100   39     280/ 10/ 12 1011.4R
PORT WASHINGTON  1030   39     270/  2/  4 1012.2R
MILWAUKEE LAKESH 1100   39     240/  7/  9   N/A
S MID LAKE BUOY  1050   42 41  290/  6/  6 1012.8R   2/ 4
KENOSHA   LAKESH 1100   40     260/  2/  5 1012.5
$$

TC  - TEMPERATURE IN CELSIUS
VSB - VISIBILITY IN STATUTE MILES
WCI - WIND CHILL INDEX
HX  - HEAT INDEX




USA.gov is the U.S. government's official web portal to all federal, state and local government web resources and services.